Regional Weather Roundup
Issued by NWS Goodland, KS

Current Version | Previous Version | Text Only | Print | Product List | Glossary On
Versions: 1 2 3 4 5 6 7 8 9 10 11 12 13 14 15 16 17 18 19 20 21 22 23 24 25 26 27 28 29 30 31 32 33 34 35 36 37 38 39 40 41 42 43 44 45 46 47 48 49 50
000
ASUS43 KGLD 151808
RWRGLD

GOODLAND FORECAST AREA HOURLY WEATHER ROUNDUP
NATIONAL WEATHER SERVICE GOODLAND KS
1100 AM MST FRI DEC 15 2017

...OFFICIAL OBSERVATIONS...

CITY           SKY/WX    TMP DP  RH WIND       PRES   REMARKS
GOODLAND KS    SUNNY     52   8  17 SW18G25   30.01F
HILL CITY KS   SUNNY     50  26  39 SW13      30.03F
IMPERIAL NEB   SUNNY     48  16  27 W12       29.98F
MCCOOK NEB     SUNNY     43  18  36 W9        30.00F
AKRON CO       SUNNY     45  17  32 W13       30.00F
BURLINGTON CO  SUNNY     53   9  17 SW16      30.03F
LIMON CO       SUNNY     51   7  16 SW14      30.03F
$$

...UNOFFICIAL OBSERVATIONS...

CITY           SKY/WX    TMP DP  RH WIND       PRES   REMARKS
COLBY KS       SUNNY     52  23  32 SW14      30.02F
LENORA KS        N/A     50  32  50 W8          N/A
NORTON KS      SUNNY     50  14  23 SW13G20   30.00
SHARON SPRINGS   N/A     51  24  34 SW13G20     N/A
TRENTON NEB      N/A     46  32  58 W7          N/A
KIT CARSON CO    N/A     44  23  43 MISG        N/A
YUMA CO        FAIR      50  12  22 W10       29.99F
$$




USA.gov is the U.S. government's official web portal to all federal, state and local government web resources and services.